TimeCDT,TemperatureF,Dew PointF,Humidity,Sea Level PressureIn,VisibilityMPH,Wind Direction,Wind SpeedMPH,Gust SpeedMPH,PrecipitationIn,Events,Conditions,WindDirDegrees,DateUTC
12:13 AM,30.2,30.2,100,29.66,10.0,NNW,5.8,-,N/A,,Overcast,330,2013-04-07 05:13:00
12:33 AM,30.2,30.2,100,29.66,10.0,NNW,4.6,-,N/A,,Overcast,330,2013-04-07 05:33:00
12:52 AM,30.2,30.2,100,29.67,7.0,NNW,6.9,-,N/A,Snow,Light Snow,330,2013-04-07 05:52:00
1:13 AM,30.2,30.2,100,29.68,10.0,North,4.6,-,N/A,,Overcast,350,2013-04-07 06:13:00
1:33 AM,30.2,30.2,100,29.68,10.0,NNW,5.8,-,N/A,,Overcast,330,2013-04-07 06:33:00
1:52 AM,30.2,30.2,100,29.69,10.0,NW,3.5,-,N/A,,Overcast,320,2013-04-07 06:52:00
2:13 AM,30.2,30.2,100,29.69,7.0,NW,5.8,-,N/A,,Overcast,310,2013-04-07 07:13:00
2:33 AM,30.2,30.2,100,29.70,10.0,NW,4.6,-,N/A,,Overcast,310,2013-04-07 07:33:00
2:53 AM,30.2,30.2,100,29.71,10.0,NW,6.9,-,N/A,,Overcast,320,2013-04-07 07:53:00
3:13 AM,30.2,30.2,100,29.71,10.0,NNW,6.9,-,N/A,,Overcast,330,2013-04-07 08:13:00
3:33 AM,30.2,30.2,100,29.71,10.0,NNW,5.8,-,N/A,,Overcast,330,2013-04-07 08:33:00
3:53 AM,30.2,30.2,100,29.71,10.0,NNW,5.8,-,N/A,,Overcast,330,2013-04-07 08:53:00
4:13 AM,30.2,30.2,100,29.71,10.0,NNW,3.5,-,N/A,,Overcast,330,2013-04-07 09:13:00
4:33 AM,30.2,30.2,100,29.72,10.0,Calm,Calm,-,N/A,,Overcast,0,2013-04-07 09:33:00
4:53 AM,30.2,28.4,93,29.73,10.0,Calm,Calm,-,N/A,,Overcast,0,2013-04-07 09:53:00
5:13 AM,30.2,28.4,93,29.73,10.0,Calm,Calm,-,N/A,,Overcast,0,2013-04-07 10:13:00
5:33 AM,30.2,28.4,93,29.75,10.0,NW,3.5,-,N/A,,Overcast,320,2013-04-07 10:33:00
5:53 AM,30.2,28.4,93,29.76,10.0,NNW,3.5,-,N/A,,Overcast,330,2013-04-07 10:53:00
6:12 AM,28.4,28.4,100,29.77,10.0,Calm,Calm,-,N/A,,Overcast,0,2013-04-07 11:12:00
6:33 AM,28.4,28.4,100,29.78,10.0,Calm,Calm,-,N/A,,Overcast,0,2013-04-07 11:33:00
6:53 AM,28.4,28.4,100,29.79,10.0,Calm,Calm,-,N/A,,Overcast,0,2013-04-07 11:53:00
7:12 AM,28.4,28.4,100,29.80,10.0,Calm,Calm,-,N/A,,Overcast,0,2013-04-07 12:12:00
7:33 AM,30.2,28.4,93,29.79,10.0,Calm,Calm,-,N/A,,Overcast,0,2013-04-07 12:33:00
7:53 AM,30.2,28.4,93,29.80,10.0,Calm,Calm,-,N/A,,Overcast,0,2013-04-07 12:53:00
8:12 AM,30.2,28.4,93,29.81,10.0,Calm,Calm,-,N/A,,Overcast,0,2013-04-07 13:12:00
8:33 AM,30.2,28.4,93,29.81,10.0,Calm,Calm,-,N/A,,Overcast,0,2013-04-07 13:33:00
8:53 AM,30.2,28.4,93,29.82,10.0,Calm,Calm,-,N/A,,Overcast,0,2013-04-07 13:53:00
9:13 AM,32.0,28.4,87,29.82,10.0,Calm,Calm,-,N/A,,Overcast,0,2013-04-07 14:13:00
9:32 AM,32.0,28.4,87,29.83,10.0,Calm,Calm,-,N/A,,Overcast,0,2013-04-07 14:32:00
9:53 AM,33.8,30.2,87,29.83,10.0,West,3.5,-,N/A,,Overcast,260,2013-04-07 14:53:00
10:13 AM,33.8,30.2,87,29.84,10.0,WSW,4.6,-,N/A,,Overcast,250,2013-04-07 15:13:00
10:33 AM,33.8,28.4,81,29.84,10.0,Calm,Calm,-,N/A,,Overcast,0,2013-04-07 15:33:00
10:53 AM,33.8,28.4,81,29.85,10.0,Calm,Calm,-,N/A,,Overcast,0,2013-04-07 15:53:00
11:13 AM,33.8,30.2,87,29.85,10.0,SSW,4.6,-,N/A,,Overcast,210,2013-04-07 16:13:00
11:33 AM,33.8,30.2,87,29.85,10.0,South,3.5,-,N/A,,Overcast,180,2013-04-07 16:33:00
11:53 AM,35.6,28.4,75,29.86,10.0,SW,3.5,-,N/A,,Overcast,220,2013-04-07 16:53:00
12:13 PM,35.6,28.4,75,29.86,10.0,Calm,Calm,-,N/A,,Overcast,0,2013-04-07 17:13:00
12:33 PM,35.6,28.4,75,29.86,10.0,Calm,Calm,-,N/A,,Overcast,0,2013-04-07 17:33:00
12:52 PM,35.6,30.2,81,29.85,10.0,Calm,Calm,-,N/A,,Overcast,0,2013-04-07 17:52:00
1:13 PM,35.6,28.4,75,29.85,10.0,South,3.5,-,N/A,,Overcast,190,2013-04-07 18:13:00
1:33 PM,35.6,28.4,75,29.85,10.0,South,4.6,-,N/A,,Overcast,180,2013-04-07 18:33:00
1:52 PM,37.4,26.6,65,29.86,10.0,WSW,3.5,-,N/A,,Overcast,250,2013-04-07 18:52:00
2:13 PM,37.4,26.6,65,29.86,10.0,Calm,Calm,-,N/A,,Overcast,0,2013-04-07 19:13:00
2:33 PM,37.4,28.4,70,29.85,10.0,Calm,Calm,-,N/A,,Overcast,0,2013-04-07 19:33:00
2:53 PM,35.6,28.4,75,29.85,10.0,Calm,Calm,-,N/A,,Overcast,0,2013-04-07 19:53:00
3:13 PM,37.4,28.4,70,29.85,10.0,SSE,3.5,-,N/A,,Overcast,160,2013-04-07 20:13:00
3:32 PM,37.4,28.4,70,29.84,10.0,SSE,3.5,-,N/A,,Overcast,150,2013-04-07 20:32:00
3:53 PM,37.4,28.4,70,29.83,10.0,Calm,Calm,-,N/A,,Overcast,0,2013-04-07 20:53:00
4:12 PM,37.4,30.2,75,29.83,10.0,Calm,Calm,-,N/A,,Overcast,0,2013-04-07 21:12:00
4:33 PM,37.4,30.2,75,29.83,10.0,Calm,Calm,-,N/A,,Overcast,0,2013-04-07 21:33:00
4:53 PM,37.4,30.2,75,29.82,10.0,SSE,5.8,-,N/A,,Overcast,160,2013-04-07 21:53:00
5:12 PM,37.4,30.2,75,29.82,10.0,South,3.5,-,N/A,,Overcast,170,2013-04-07 22:12:00
5:33 PM,37.4,30.2,75,29.82,10.0,South,4.6,-,N/A,,Overcast,180,2013-04-07 22:33:00
5:53 PM,37.4,30.2,75,29.82,10.0,South,4.6,-,N/A,,Overcast,180,2013-04-07 22:53:00
6:13 PM,37.4,30.2,75,29.82,10.0,South,5.8,-,N/A,,Overcast,180,2013-04-07 23:13:00
6:32 PM,35.6,30.2,81,29.82,10.0,South,6.9,-,N/A,,Overcast,170,2013-04-07 23:32:00
6:53 PM,35.6,30.2,81,29.83,10.0,Calm,Calm,-,N/A,,Overcast,0,2013-04-07 23:53:00
7:13 PM,35.6,30.2,81,29.82,10.0,SSE,3.5,-,N/A,,Overcast,160,2013-04-08 00:13:00
7:32 PM,35.6,30.2,81,29.82,10.0,SSE,8.1,-,N/A,,Overcast,150,2013-04-08 00:32:00
7:53 PM,33.8,28.4,81,29.83,10.0,SSE,8.1,-,N/A,,Overcast,160,2013-04-08 00:53:00
8:13 PM,33.8,28.4,81,29.83,10.0,SSE,10.4,-,N/A,,Overcast,160,2013-04-08 01:13:00
8:32 PM,33.8,28.4,81,29.84,10.0,South,9.2,-,N/A,,Overcast,170,2013-04-08 01:32:00
8:53 PM,33.8,28.4,81,29.85,10.0,South,8.1,-,N/A,,Overcast,170,2013-04-08 01:53:00
9:13 PM,33.8,28.4,81,29.86,10.0,South,8.1,-,N/A,,Overcast,180,2013-04-08 02:13:00
9:33 PM,33.8,30.2,87,29.87,10.0,SSW,8.1,-,N/A,,Overcast,200,2013-04-08 02:33:00
9:53 PM,33.8,28.4,81,29.87,10.0,SSW,4.6,-,N/A,Snow,Light Snow,200,2013-04-08 02:53:00
10:12 PM,32.0,30.2,93,29.86,2.0,South,3.5,-,N/A,Snow,Light Snow,170,2013-04-08 03:12:00
10:33 PM,32.0,30.2,93,29.86,0.8,Calm,Calm,-,0.02,Snow,Snow,0,2013-04-08 03:33:00
10:53 PM,32.0,30.2,93,29.86,0.8,Calm,Calm,-,0.04,Snow,Snow,0,2013-04-08 03:53:00
11:12 PM,30.2,30.2,100,29.85,1.0,Calm,Calm,-,0.02,Snow,Snow,0,2013-04-08 04:12:00
11:33 PM,30.2,30.2,100,29.83,1.2,Calm,Calm,-,0.04,Snow,Light Snow,0,2013-04-08 04:33:00
11:53 PM,30.2,30.2,100,29.83,2.0,Calm,Calm,-,0.05,Snow,Light Snow,0,2013-04-08 04:53:00